Berlin, NH

11:13 PM EST on February 23, 2018 (GMT -0500)
Berlin Municipal

Weather History for KBML - October, 2012

Change the Weather History Date:

Monday, October 1, 2012

  Actual Average Record
Temperature  
Mean Temperature 55 °F -  
Max Temperature 60 °F 59 °F 79 °F (2002)
Min Temperature 50 °F 31 °F 27 °F (2001)
Degree Days  
Heating Degree Days 10    
Growing Degree Days 5 (Base 50)    
Moisture  
Dew Point 49 °F    
Average Humidity 83    
Maximum Humidity 96    
Minimum Humidity 72    
Precipitation  
Precipitation 0.08 in - - ()
Sea Level Pressure  
Sea Level Pressure 29.68 in    
Wind  
Wind Speed 3 mph (SW)    
Max Wind Speed 10 mph    
Max Gust Speed 22 mph    
Visibility 10 miles    
Events Rain    
Averages and records for this station are not official NWS values.
T = Trace of Precipitation, MM = Missing Value Source: NWS Daily Summary

Daily Weather History Graph

Daily Weather History Graph

Search for Another Location

Airport or City:

Trip Planner

Search our weather history database for the weather conditions in past years. The results will help you decide how hot, cold, wet, or windy it might be!

Date:

Astronomy

Oct. 01, 2012 Rise Set
Actual Time 6:43 AM EDT 6:24 PM EDT
Civil Twilight 6:14 AM EDT 6:53 PM EDT
Nautical Twilight 5:40 AM EDT 7:27 PM EDT
Astronomical Twilight 5:05 AM EDT 8:01 PM EDT
Moon 6:53 PM EDT (10/1) 8:15 AM EDT (10/1)
Length of Visible Light 12h 39m
Length of Day
11h 41m
Full, 98% of the Moon is Illuminated
Oct 1
Full
Oct 8
Last Quarter
Oct 15
New
Oct 21
First Quarter
Oct 29
Full

Hourly Weather History & Observations

Time (EDT) Temp. Dew Point Humidity Pressure Visibility Wind Dir Wind Speed Gust Speed Precip Events Conditions
12:19 AM 51.8 °F 48.2 °F 88% 29.60 in 10.0 mi Calm Calm - N/A   Overcast
12:52 AM 52.0 °F 50.0 °F 93% 29.61 in 10.0 mi Calm Calm - 0.00 in   Overcast
1:52 AM 51.1 °F 48.0 °F 89% 29.60 in 10.0 mi Calm Calm - N/A   Overcast
2:52 AM 50.0 °F 48.9 °F 96% 29.59 in 10.0 mi Calm Calm - 0.01 in Rain Light Rain
3:52 AM 51.1 °F 48.0 °F 89% 29.58 in 10.0 mi South 3.5 mph - 0.00 in Rain Light Rain
4:52 AM 50.0 °F 46.0 °F 86% 29.58 in 10.0 mi Calm Calm - 0.01 in Rain Light Rain
5:52 AM 50.0 °F 46.9 °F 89% 29.58 in 10.0 mi South 3.5 mph - 0.00 in   Overcast
6:52 AM 50.0 °F 46.9 °F 89% 29.57 in 10.0 mi Calm Calm - N/A   Overcast
7:39 AM 50.0 °F 46.4 °F 87% 29.57 in 6.0 mi South 3.5 mph - 0.02 in Rain Light Rain
7:52 AM 50.0 °F 46.9 °F 89% 29.58 in 7.0 mi South 4.6 mph - 0.03 in Rain Light Rain
8:01 AM 50.0 °F 46.4 °F 87% 29.57 in 6.0 mi South 3.5 mph - 0.00 in Rain Light Rain
8:52 AM 51.1 °F 46.9 °F 86% 29.59 in 10.0 mi South 4.6 mph - 0.01 in Rain Light Rain
8:59 AM 51.8 °F 46.4 °F 82% 29.58 in 10.0 mi South 4.6 mph - 0.00 in Rain Light Rain
9:52 AM 53.1 °F 48.9 °F 86% 29.60 in 10.0 mi Variable 3.5 mph - 0.01 in Rain Light Rain
10:52 AM 53.1 °F 48.9 °F 86% 29.60 in 10.0 mi SW 5.8 mph - 0.00 in   Overcast
11:52 AM 55.0 °F 50.0 °F 83% 29.61 in 10.0 mi Calm Calm - 0.00 in   Overcast
12:52 PM 59.0 °F 50.0 °F 72% 29.64 in 10.0 mi West 8.1 mph 17.3 mph 0.00 in Rain Light Rain
1:19 PM 59.0 °F 50.0 °F 72% 29.64 in 10.0 mi Variable 4.6 mph 21.9 mph 0.00 in   Overcast
1:52 PM 60.1 °F 51.1 °F 72% 29.67 in 10.0 mi Variable 6.9 mph - 0.00 in   Overcast
2:18 PM 57.2 °F 50.0 °F 77% 29.68 in 9.0 mi Variable 4.6 mph 20.7 mph N/A   Overcast
2:52 PM 57.0 °F 51.1 °F 81% 29.70 in 7.0 mi West 10.4 mph 17.3 mph 0.00 in Rain Light Rain
3:42 PM 57.2 °F 51.8 °F 82% 29.71 in 10.0 mi WNW 8.1 mph 20.7 mph 0.01 in   Overcast
3:52 PM 57.0 °F 51.1 °F 81% 29.73 in 10.0 mi Variable 5.8 mph - 0.01 in   Overcast
4:52 PM 57.0 °F 51.1 °F 81% 29.76 in 10.0 mi Variable 4.6 mph - N/A   Overcast
5:31 PM 57.2 °F 51.8 °F 82% 29.77 in 10.0 mi SE 3.5 mph - 0.00 in   Overcast
5:52 PM 55.9 °F 50.0 °F 80% 29.80 in 10.0 mi Variable 3.5 mph - 0.00 in   Overcast
6:10 PM 55.4 °F 50.0 °F 82% 29.79 in 10.0 mi Calm Calm - N/A   Overcast
6:52 PM 55.9 °F 50.0 °F 80% 29.82 in 10.0 mi Variable 3.5 mph - N/A   Overcast
7:07 PM 55.4 °F 50.0 °F 82% 29.81 in 10.0 mi Calm Calm - N/A   Overcast
7:52 PM 55.0 °F 50.0 °F 83% 29.84 in 10.0 mi WSW 3.5 mph - N/A   Overcast
8:19 PM 55.4 °F 50.0 °F 82% 29.84 in 10.0 mi Variable 3.5 mph - N/A   Overcast
8:52 PM 55.0 °F 50.0 °F 83% 29.87 in 10.0 mi West 5.8 mph - 0.00 in   Overcast
9:52 PM 55.9 °F 50.0 °F 80% 29.87 in 10.0 mi West 6.9 mph - N/A   Overcast
11:52 PM 57.0 °F 50.0 °F 77% 29.89 in 10.0 mi Variable 3.5 mph - N/A   Overcast